Find Starlink 11722

NORAD ID: 64128 Int'l Des: 2025-111 Owner: SPXS Country: US Constellation: starlink operational
別名: STARLINK-11722 [DTC] celestrak
LEOCIRCULAR

現在のビュー

3D地球を読み込み中...

About Starlink 11722

Starlink 11722 (NORAD 64128) is a starlink constellation satellite (v2 mini d2c) launched May 24, 2025 by SPXS of US. It operates in LEO, CIRCULAR orbit with a mass of 960.00 kg.

次回通過

Passes for default location (London). Set your location on the main map for personalized predictions.

高度履歴

Loading altitude history...

軌道要素

1 64128U 25111F 26237.84600765 .00149870 00000-0 11432-2 0 9999
2 64128 43.0037 34.1772 0005117 272.7746 87.2537 15.70980685 73194
Epoch: Aug 25, 2026 • Age: 19 hours

現在のステータス

高度 358.5 km
遠地点 / 近地点 N/A
速度 7.70 km/s
衛星直下点 28.53°N, 28.7°W
打ち上げ日 May 24, 2025
運用期間 1.2 years
タイプ internet

技術仕様

分類 Payload
質量 960.00 kg
乾燥質量 910.00 kg
総質量 960.00 kg
長さ 0.30 m
直径 4.10 m
スパン 29.00 m
形状 Box + pan
製造者 SPXS
バスタイプ Starlink V2MD
フェーズステータス In Orbit
所有者/国 SPXS/US

Most Searched